Weather History for Buena Vista, CO

Change the Weather History Date:

Thursday, May 1, 2014

  Actual Average (KLXV) Record (KLXV)
Temperature  
Mean Temperature 40 °F -  
Max Temperature 52 °F 49 °F 64 °F (1992)
Min Temperature 27 °F 23 °F 11 °F (2014)
Degree Days  
Heating Degree Days 26 29  
Month to date heating degree days 29  
Since 1 July heating degree days 10030  
Cooling Degree Days 0 0  
Month to date cooling degree days 0  
Year to date cooling degree days 0  
Moisture  
Dew Point 7 °F    
Average Humidity 29    
Maximum Humidity 51    
Minimum Humidity 12    
Precipitation  
Precipitation 0.00 in 0.03 in 0.44 in (1999)
Month to date precipitation 0.03  
Year to date precipitation 3.36  
Sea Level Pressure  
Sea Level Pressure 30.24 in    
Wind  
Wind Speed 16 mph (NW)    
Max Wind Speed 26 mph    
Max Gust Speed 39 mph    
Visibility 10 miles    
Events      
T = Trace of Precipitation, MM = Missing Value Source: NWS Daily Summary

Daily Weather History Graph

Daily Weather History Graph

Search for Another Location

Airport:

Trip Planner

Search our weather history database for the weather conditions in past years. The results will help you decide how hot, cold, wet, or windy it might be!

Date:

Astronomy

May. 01, 2014 Rise Set
Actual Time 6:06 AM MDT 7:56 PM MDT
Civil Twilight 5:38 AM MDT 8:25 PM MDT
Nautical Twilight 5:03 AM MDT 9:00 PM MDT
Astronomical Twilight 4:25 AM MDT 9:38 PM MDT
Moon 7:57 AM MDT (5/1) 10:31 PM MDT (5/1)
Length of Visible Light 14h 47m
Length of Day
13h 50m
Waxing Crescent, 7% of the Moon is Illuminated
May 1
Waxing Crescent
May 6
First Quarter
May 14
Full
May 21
Last Quarter
May 28
New

Hourly Weather History & Observations

Time (MDT) Temp. Windchill Dew Point Humidity Pressure Visibility Wind Dir Wind Speed Gust Speed Precip Events Conditions
12:15 AM 32.2 °F 21.1 °F 13.1 °F 45% 30.32 in 10.0 mi NW 17.3 mph 23.0 mph N/A   Scattered Clouds
12:35 AM 31.8 °F 22.8 °F 12.9 °F 46% 30.32 in 10.0 mi NNW 11.5 mph - N/A   Scattered Clouds
12:55 AM 31.8 °F 22.3 °F 13.1 °F 46% 30.31 in 10.0 mi NNW 12.7 mph 24.2 mph N/A   Clear
1:15 AM 31.3 °F 20.3 °F 12.2 °F 45% 30.31 in 10.0 mi NW 16.1 mph 20.7 mph N/A   Clear
1:35 AM 30.9 °F 21.2 °F 11.3 °F 44% 30.31 in 10.0 mi NW 12.7 mph 19.6 mph N/A   Clear
1:55 AM 30.7 °F 20.4 °F 11.1 °F 44% 30.30 in 10.0 mi NNW 13.8 mph 20.7 mph N/A   Clear
2:15 AM 29.8 °F 18.0 °F 10.9 °F 45% 30.29 in 10.0 mi NW 17.3 mph 20.7 mph N/A   Clear
2:35 AM 29.3 °F 18.6 °F 10.9 °F 46% 30.28 in 10.0 mi NNW 13.8 mph 18.4 mph N/A   Clear
2:55 AM 28.9 °F 16.9 °F 11.3 °F 48% 30.26 in 10.0 mi NNW 17.3 mph - N/A   Clear
3:15 AM 28.0 °F 16.1 °F 11.1 °F 49% 30.26 in 10.0 mi NW 16.1 mph 23.0 mph N/A   Clear
3:35 AM 28.4 °F 17.5 °F 10.9 °F 48% 30.26 in 10.0 mi NW 13.8 mph 20.7 mph N/A   Clear
3:55 AM 28.8 °F 17.0 °F 10.8 °F 47% 30.26 in 10.0 mi NW 16.1 mph 26.5 mph N/A   Clear
4:15 AM 28.6 °F 15.0 °F 11.1 °F 48% 30.26 in 10.0 mi NW 21.9 mph 29.9 mph N/A   Clear
4:35 AM 28.0 °F 14.9 °F 10.6 °F 48% 30.27 in 10.0 mi NW 19.6 mph 26.5 mph N/A   Clear
5:15 AM 27.3 °F 18.4 °F 10.6 °F 49% 30.29 in 10.0 mi WNW 9.2 mph - N/A   Clear
5:35 AM 28.6 °F 17.7 °F 10.4 °F 47% 30.29 in 10.0 mi North 13.8 mph 19.6 mph N/A   Clear
5:55 AM 28.6 °F 19.3 °F 10.4 °F 47% 30.30 in 10.0 mi NNW 10.4 mph - N/A   Clear
6:15 AM 27.0 °F 19.5 °F 10.8 °F 51% 30.30 in 10.0 mi NW 6.9 mph - N/A   Clear
6:35 AM 28.8 °F 17.5 °F 11.3 °F 48% 30.29 in 10.0 mi NW 15.0 mph - N/A   Clear
6:55 AM 30.2 °F 19.3 °F 11.1 °F 45% 30.29 in 10.0 mi NW 15.0 mph - N/A   Clear
7:15 AM 32.0 °F 21.6 °F 10.4 °F 41% 30.29 in 10.0 mi NNW 15.0 mph 23.0 mph N/A   Clear
7:35 AM 32.0 °F 19.8 °F 10.4 °F 41% 30.28 in 10.0 mi NNW 20.7 mph 24.2 mph N/A   Clear
7:55 AM 34.2 °F 23.3 °F 8.2 °F 34% 30.28 in 10.0 mi NNW 18.4 mph 21.9 mph N/A   Clear
8:15 AM 35.8 °F 26.1 °F 6.8 °F 30% 30.28 in 10.0 mi NNW 16.1 mph 26.5 mph N/A   Clear
9:15 AM 39.2 °F 29.3 °F 6.3 °F 26% 30.27 in 10.0 mi NW 20.7 mph 29.9 mph N/A   Clear
9:35 AM 41.0 °F 31.6 °F -1.3 °F 17% 30.26 in 10.0 mi NW 20.7 mph 28.8 mph N/A   Clear
9:55 AM 41.7 °F 31.9 °F -3.3 °F 15% 30.26 in 10.0 mi WNW 24.2 mph 33.4 mph N/A   Clear
10:15 AM 42.1 °F 32.8 °F -4.5 °F 14% 30.25 in 10.0 mi NW 21.9 mph 32.2 mph N/A   Clear
10:35 AM 43.7 °F 35.0 °F -3.1 °F 14% 30.25 in 10.0 mi WNW 21.9 mph 29.9 mph N/A   Clear
10:55 AM 45.0 °F 37.1 °F -3.1 °F 13% 30.24 in 10.0 mi NW 19.6 mph 27.6 mph N/A   Clear
11:15 AM 44.8 °F 36.2 °F -2.6 °F 14% 30.24 in 10.0 mi NW 23.0 mph 32.2 mph N/A   Clear
11:35 AM 46.4 °F 38.7 °F -2.2 °F 13% 30.23 in 10.0 mi NW 20.7 mph 33.4 mph N/A   Clear
11:55 AM 47.8 °F - -2.2 °F 13% 30.22 in 10.0 mi NW 24.2 mph 32.2 mph N/A   Clear
12:15 PM 48.2 °F - -1.3 °F 13% 30.22 in 10.0 mi NW 25.3 mph 39.1 mph N/A   Clear
12:35 PM 49.3 °F - -1.5 °F 12% 30.22 in 10.0 mi WNW 25.3 mph 34.5 mph N/A   Clear
12:55 PM 48.7 °F - 0.3 °F 14% 30.21 in 10.0 mi WNW 23.0 mph 33.4 mph N/A   Scattered Clouds
1:15 PM 49.8 °F - 1.8 °F 14% 30.21 in 10.0 mi WNW 26.5 mph 31.1 mph N/A   Scattered Clouds
1:35 PM 48.2 °F - 1.0 °F 14% 30.21 in 10.0 mi NNW 18.4 mph 29.9 mph N/A   Mostly Cloudy
1:55 PM 48.9 °F - 3.7 °F 16% 30.20 in 10.0 mi WNW 23.0 mph 39.1 mph N/A   Mostly Cloudy
2:15 PM 50.7 °F - 4.5 °F 15% 30.21 in 10.0 mi NW 20.7 mph 31.1 mph N/A   Scattered Clouds
2:35 PM 49.6 °F - 4.3 °F 16% 30.20 in 10.0 mi NW 20.7 mph 36.8 mph N/A   Mostly Cloudy
2:55 PM 50.2 °F - 5.5 °F 16% 30.20 in 10.0 mi NW 16.1 mph 29.9 mph N/A   Mostly Cloudy
3:15 PM 51.8 °F - 5.5 °F 15% 30.20 in 10.0 mi NW 18.4 mph 27.6 mph N/A   Mostly Cloudy
3:35 PM 51.3 °F - 5.7 °F 16% 30.19 in 10.0 mi NW 10.4 mph 33.4 mph N/A   Mostly Cloudy
3:55 PM 52.0 °F - 6.1 °F 16% 30.19 in 10.0 mi WNW 24.2 mph 32.2 mph N/A   Mostly Cloudy
4:15 PM 52.5 °F - 6.3 °F 15% 30.19 in 10.0 mi NW 16.1 mph 31.1 mph N/A   Mostly Cloudy
4:35 PM 52.2 °F - 6.6 °F 16% 30.19 in 10.0 mi NW 17.3 mph 35.7 mph N/A   Scattered Clouds
4:55 PM 51.8 °F - 7.5 °F 17% 30.19 in 10.0 mi West 21.9 mph 35.7 mph N/A   Scattered Clouds
5:15 PM 51.4 °F - 7.3 °F 17% 30.20 in 10.0 mi NW 19.6 mph 28.8 mph N/A   Mostly Cloudy
5:35 PM 50.9 °F - 8.2 °F 18% 30.20 in 10.0 mi NW 18.4 mph 33.4 mph N/A   Scattered Clouds
5:55 PM 49.8 °F - 8.8 °F 19% 30.20 in 10.0 mi NW 23.0 mph 33.4 mph N/A   Scattered Clouds
6:15 PM 49.3 °F - 9.9 °F 20% 30.21 in 10.0 mi WNW 23.0 mph 29.9 mph N/A   Scattered Clouds
6:35 PM 48.7 °F - 10.4 °F 21% 30.21 in 10.0 mi NW 20.7 mph 27.6 mph N/A   Clear
6:55 PM 48.2 °F - 10.2 °F 22% 30.20 in 10.0 mi NW 17.3 mph 24.2 mph N/A   Clear
7:15 PM 47.3 °F - 10.0 °F 22% 30.21 in 10.0 mi NW 15.0 mph 18.4 mph N/A   Clear
7:35 PM 45.5 °F 39.2 °F 10.0 °F 24% 30.21 in 10.0 mi NW 13.8 mph 17.3 mph N/A   Clear
7:55 PM 44.6 °F 38.4 °F 9.3 °F 24% 30.21 in 10.0 mi NW 12.7 mph 18.4 mph N/A   Clear
8:15 PM 43.9 °F 37.9 °F 9.3 °F 24% 30.22 in 10.0 mi NW 11.5 mph 17.3 mph N/A   Clear
8:35 PM 42.8 °F 38.6 °F 9.5 °F 26% 30.22 in 10.0 mi NW 6.9 mph - N/A   Clear
8:55 PM 40.6 °F 36.0 °F 10.0 °F 29% 30.23 in 10.0 mi NNW 6.9 mph - N/A   Clear
9:15 PM 41.9 °F 36.9 °F 10.4 °F 28% 30.23 in 10.0 mi North 8.1 mph - N/A   Clear
9:35 PM 41.2 °F 36.6 °F 10.4 °F 28% 30.24 in 10.0 mi NNW 6.9 mph - N/A   Clear
9:55 PM 37.2 °F 33.6 °F 9.7 °F 32% 30.24 in 10.0 mi West 4.6 mph - N/A   Clear
10:15 PM 33.4 °F 28.1 °F 9.7 °F 37% 30.24 in 10.0 mi West 5.8 mph - N/A   Clear
10:35 PM 33.8 °F 27.0 °F 10.0 °F 37% 30.24 in 10.0 mi WNW 8.1 mph - N/A   Clear
10:55 PM 33.4 °F 25.9 °F 10.4 °F 38% 30.23 in 10.0 mi West 9.2 mph - N/A   Clear
11:15 PM 32.4 °F 24.6 °F 11.3 °F 42% 30.23 in 10.0 mi West 9.2 mph - N/A   Clear
11:35 PM 33.3 °F 25.1 °F 12.0 °F 41% 30.23 in 10.0 mi West 10.4 mph - N/A   Clear
11:55 PM 36.1 °F 28.2 °F 12.2 °F 37% 30.23 in 10.0 mi West 11.5 mph - N/A   Clear